Find Starlink 3140

NORAD ID: 49460 Int'l Des: 2021-104 Owner: SPXS Country: US Constellation: starlink operational
LEOCIRCULAR

リアルタイム位置

3D地球を読み込み中...

Starlink 3140について

説明を読み込み中...

次回通過

Passes for default location (London). Set your location on the main map for personalized predictions.

高度履歴

Loading altitude history...

軌道要素

1 49460U 21104BE 26107.20201270 -.00000121 00000-0 10469-4 0 9990
2 49460 53.2185 46.2322 0001334 90.3387 269.7758 15.08834344244586
Epoch: Apr 17, 2026 • Age: 12 hours

現在のステータス

高度 557.4 km
速度 7.58 km/s
衛星直下点 -48.71°S, 179.8°E
打ち上げ日 Nov 13, 2021
運用期間 4.4 years
タイプ internet

技術仕様

分類 Payload
質量 290.00 kg
乾燥質量 270.00 kg
総質量 290.00 kg
長さ 0.20 m
直径 2.80 m
スパン 9.00 m
形状 Box + pan
製造者 SPXS
バスタイプ Starlink
フェーズステータス In Orbit
所有者/国 SPXS/US

Most Searched